NJE024B EGGW-EGHQ

Flight info

Callsign NJE024B
Flight time 0h 39m
Altitude 24000
Route RODNI N27 ICTAM Q63 CPT Y321 PEPIS Q41 SAM L620 DAWLY
Aircraft C750/M-SBDE3FGHRWXY/S

Departure

Time 2026-04-25 14:16
Airport London Luton Airport (EGGW)

Arrival

Time 2026-04-25 14:55
Airport Cornwall Airport Newquay (EGHQ)
Time Latitude Longitude Altitude Speed Heading
2026-04-25 13:45 51.88349 -0.37423 530 ft 0 kts 225°
2026-04-25 14:09 51.88347 -0.37426 530 ft 0 kts 225°
2026-04-25 14:09 51.88351 -0.37421 530 ft 5 kts 225°
2026-04-25 14:10 51.88356 -0.37410 530 ft 1 kts 217°
2026-04-25 14:10 51.88340 -0.37391 530 ft 7 kts 113°
2026-04-25 14:10 51.88322 -0.37287 530 ft 11 kts 147°
2026-04-25 14:10 51.88269 -0.37321 530 ft 11 kts 251°
2026-04-25 14:11 51.88238 -0.37466 530 ft 17 kts 251°
2026-04-25 14:11 51.88181 -0.37668 530 ft 21 kts 240°
2026-04-25 14:11 51.88094 -0.37844 530 ft 20 kts 218°
2026-04-25 14:11 51.87989 -0.37974 530 ft 19 kts 216°
2026-04-25 14:12 51.87874 -0.38011 530 ft 16 kts 159°
2026-04-25 14:12 51.87794 -0.37903 530 ft 14 kts 131°
2026-04-25 14:12 51.87762 -0.37782 530 ft 12 kts 114°
2026-04-25 14:12 51.87720 -0.37631 530 ft 17 kts 115°
2026-04-25 14:13 51.87659 -0.37483 531 ft 15 kts 148°
2026-04-25 14:13 51.87570 -0.37454 533 ft 15 kts 186°
2026-04-25 14:13 51.87492 -0.37598 533 ft 22 kts 258°
2026-04-25 14:13 51.87453 -0.37833 533 ft 21 kts 254°
2026-04-25 14:14 51.87398 -0.38040 532 ft 19 kts 219°
2026-04-25 14:14 51.87278 -0.38113 529 ft 18 kts 162°
2026-04-25 14:14 51.87260 -0.38019 530 ft 0 kts 73°
2026-04-25 14:15 51.87260 -0.38018 530 ft 0 kts 73°
2026-04-25 14:15 51.87320 -0.37672 533 ft 80 kts 74°
2026-04-25 14:15 51.87558 -0.36288 596 ft 156 kts 74°
2026-04-25 14:16 51.87857 -0.34477 1162 ft 174 kts 75°
2026-04-25 14:16 51.88167 -0.32513 1931 ft 185 kts 76°
2026-04-25 14:16 51.88473 -0.30372 2556 ft 203 kts 76°
2026-04-25 14:16 51.88816 -0.28170 3467 ft 200 kts 75°
2026-04-25 14:17 51.88718 -0.25855 4022 ft 220 kts 109°
2026-04-25 14:17 51.87944 -0.23537 4314 ft 253 kts 120°
2026-04-25 14:17 51.87274 -0.21145 4534 ft 271 kts 116°
2026-04-25 14:17 51.85957 -0.18990 4722 ft 271 kts 152°
2026-04-25 14:18 51.84167 -0.18333 5383 ft 262 kts 181°
2026-04-25 14:18 51.82380 -0.19152 5778 ft 277 kts 213°
2026-04-25 14:18 51.81239 -0.21369 6705 ft 258 kts 249°
2026-04-25 14:18 51.81118 -0.24272 7453 ft 268 kts 278°
2026-04-25 14:19 51.81547 -0.27175 8529 ft 264 kts 285°
2026-04-25 14:19 51.82000 -0.29974 9782 ft 262 kts 285°
2026-04-25 14:19 51.82310 -0.32960 10419 ft 277 kts 272°
2026-04-25 14:19 51.82411 -0.36120 11083 ft 286 kts 274°
2026-04-25 14:20 51.82293 -0.39334 11786 ft 294 kts 258°
2026-04-25 14:20 51.81917 -0.41511 11860 ft 314 kts 254°
2026-04-25 14:20 51.81157 -0.45929 11919 ft 349 kts 255°
2026-04-25 14:20 51.80473 -0.49712 12723 ft 349 kts 254°
2026-04-25 14:21 51.79837 -0.53510 13494 ft 352 kts 257°
2026-04-25 14:21 51.79290 -0.57388 14196 ft 356 kts 258°
2026-04-25 14:21 51.78728 -0.61298 14858 ft 359 kts 257°
2026-04-25 14:21 51.78108 -0.65230 15513 ft 362 kts 256°
2026-04-25 14:22 51.77481 -0.69185 16173 ft 366 kts 257°
2026-04-25 14:22 51.76871 -0.73184 16860 ft 368 kts 257°
2026-04-25 14:22 51.76170 -0.77179 17474 ft 374 kts 249°
2026-04-25 14:22 51.74818 -0.80792 18192 ft 379 kts 233°
2026-04-25 14:23 51.72994 -0.83901 18845 ft 383 kts 226°
2026-04-25 14:23 51.71091 -0.86930 19536 ft 386 kts 226°
2026-04-25 14:23 51.69181 -0.89987 20233 ft 388 kts 226°
2026-04-25 14:23 51.67265 -0.93081 20941 ft 391 kts 226°
2026-04-25 14:24 51.65335 -0.96185 21616 ft 394 kts 226°
2026-04-25 14:24 51.63401 -0.99275 22241 ft 399 kts 226°
2026-04-25 14:24 51.61472 -1.02355 22899 ft 402 kts 226°
2026-04-25 14:24 51.59482 -1.05537 23568 ft 405 kts 226°
2026-04-25 14:25 51.57473 -1.08748 24119 ft 410 kts 226°
2026-04-25 14:25 51.55412 -1.12034 24178 ft 426 kts 226°
2026-04-25 14:25 51.53265 -1.15450 24183 ft 442 kts 226°
2026-04-25 14:25 51.52519 -1.16624 24184 ft 447 kts 226°
2026-04-25 14:26 51.48036 -1.21129 24168 ft 474 kts 203°
2026-04-25 14:26 51.44824 -1.22309 24170 ft 467 kts 188°
2026-04-25 14:26 51.41594 -1.22619 24195 ft 468 kts 185°
2026-04-25 14:26 51.38319 -1.22854 24202 ft 473 kts 185°
2026-04-25 14:27 51.35027 -1.23105 24199 ft 474 kts 185°
2026-04-25 14:27 51.31731 -1.23390 24187 ft 475 kts 185°
2026-04-25 14:27 51.28431 -1.23670 24187 ft 475 kts 185°
2026-04-25 14:27 51.25150 -1.23926 24187 ft 473 kts 185°
2026-04-25 14:28 51.21853 -1.24185 24183 ft 474 kts 185°
2026-04-25 14:28 51.18590 -1.24857 24175 ft 472 kts 194°
2026-04-25 14:28 51.15415 -1.26162 24180 ft 472 kts 197°
2026-04-25 14:28 51.12251 -1.27516 24184 ft 471 kts 197°
2026-04-25 14:29 51.09070 -1.28833 24188 ft 472 kts 197°
2026-04-25 14:29 51.05932 -1.30317 24169 ft 471 kts 202°
2026-04-25 14:29 51.02980 -1.32500 24171 ft 468 kts 211°
2026-04-25 14:29 51.00265 -1.35313 24175 ft 465 kts 219°
2026-04-25 14:30 50.97844 -1.38692 24175 ft 463 kts 226°
2026-04-25 14:30 50.94029 -1.46893 24175 ft 463 kts 243°
2026-04-25 14:30 50.92714 -1.51535 24175 ft 461 kts 250°
2026-04-25 14:31 50.91797 -1.56397 24182 ft 460 kts 256°
2026-04-25 14:31 50.90965 -1.61298 24191 ft 461 kts 256°
2026-04-25 14:31 50.90111 -1.66187 24214 ft 461 kts 255°
2026-04-25 14:31 50.89258 -1.71081 24218 ft 461 kts 255°
2026-04-25 14:32 50.88418 -1.75970 24216 ft 461 kts 256°
2026-04-25 14:32 50.87574 -1.80872 24217 ft 461 kts 255°
2026-04-25 14:32 50.86847 -1.85039 24218 ft 461 kts 255°
2026-04-25 14:32 50.85959 -1.90095 24192 ft 461 kts 256°
2026-04-25 14:33 50.85104 -1.94983 24188 ft 461 kts 256°
2026-04-25 14:33 50.84249 -1.99873 24190 ft 461 kts 256°
2026-04-25 14:33 50.83681 -2.03112 24188 ft 461 kts 256°
2026-04-25 14:33 50.82624 -2.09094 24190 ft 461 kts 255°
2026-04-25 14:34 50.81758 -2.13981 24192 ft 461 kts 255°
2026-04-25 14:34 50.80893 -2.18867 24191 ft 461 kts 255°
2026-04-25 14:34 50.80027 -2.23740 24191 ft 461 kts 255°
2026-04-25 14:34 50.79260 -2.28049 24187 ft 461 kts 255°
2026-04-25 14:35 50.78387 -2.32923 24188 ft 461 kts 255°
2026-04-25 14:35 50.77512 -2.37793 24186 ft 460 kts 255°
2026-04-25 14:35 50.76638 -2.42661 24185 ft 461 kts 255°
2026-04-25 14:35 50.75761 -2.47523 24188 ft 461 kts 255°
2026-04-25 14:36 50.74880 -2.52394 24186 ft 460 kts 255°
2026-04-25 14:36 50.73999 -2.57253 24187 ft 461 kts 255°
2026-04-25 14:36 50.73130 -2.62041 24187 ft 460 kts 255°
2026-04-25 14:36 50.72245 -2.66901 24187 ft 461 kts 255°
2026-04-25 14:37 50.71358 -2.71756 24189 ft 461 kts 255°
2026-04-25 14:37 50.70469 -2.76608 24191 ft 461 kts 255°
2026-04-25 14:37 50.69578 -2.81459 24191 ft 460 kts 255°
2026-04-25 14:37 50.68688 -2.86296 24190 ft 460 kts 255°
2026-04-25 14:38 50.67794 -2.91134 24194 ft 460 kts 255°
2026-04-25 14:38 50.66898 -2.95978 24192 ft 460 kts 255°
2026-04-25 14:38 50.66001 -3.00811 24190 ft 460 kts 255°
2026-04-25 14:38 50.65102 -3.05641 24189 ft 460 kts 255°
2026-04-25 14:39 50.64216 -3.10382 23855 ft 439 kts 255°
2026-04-25 14:39 50.63369 -3.14902 23247 ft 425 kts 255°
2026-04-25 14:39 50.62817 -3.17856 22872 ft 423 kts 255°
2026-04-25 14:39 50.62080 -3.21797 22398 ft 422 kts 255°
2026-04-25 14:40 50.60968 -3.27702 21656 ft 420 kts 255°
2026-04-25 14:40 50.60405 -3.30678 21285 ft 418 kts 255°
2026-04-25 14:40 50.59579 -3.35050 20720 ft 416 kts 254°
2026-04-25 14:40 50.58768 -3.39336 20191 ft 413 kts 254°
2026-04-25 14:41 50.57949 -3.43646 19655 ft 410 kts 254°
2026-04-25 14:41 50.57179 -3.47940 19113 ft 406 kts 257°
2026-04-25 14:41 50.56531 -3.52251 18584 ft 404 kts 257°
2026-04-25 14:41 50.55963 -3.56031 18077 ft 401 kts 257°
2026-04-25 14:42 50.55310 -3.60276 17547 ft 398 kts 257°
2026-04-25 14:42 50.54866 -3.63127 17191 ft 397 kts 256°
2026-04-25 14:42 50.54009 -3.68683 16502 ft 393 kts 257°
2026-04-25 14:42 50.53369 -3.72849 15976 ft 391 kts 256°
2026-04-25 14:43 50.52729 -3.76987 15473 ft 388 kts 256°
2026-04-25 14:43 50.52090 -3.81093 14954 ft 386 kts 256°
2026-04-25 14:43 50.51455 -3.85170 14452 ft 383 kts 256°
2026-04-25 14:43 50.50894 -3.88772 14003 ft 381 kts 256°
2026-04-25 14:44 50.50264 -3.92795 13464 ft 377 kts 256°
2026-04-25 14:44 50.49638 -3.96785 12969 ft 374 kts 256°
2026-04-25 14:44 50.49014 -4.00753 12476 ft 374 kts 256°
2026-04-25 14:44 50.48465 -4.04245 12043 ft 368 kts 256°
2026-04-25 14:45 50.47873 -4.07992 11578 ft 340 kts 257°
2026-04-25 14:45 50.47324 -4.11461 11145 ft 316 kts 257°
2026-04-25 14:45 50.46809 -4.14710 10740 ft 297 kts 257°
2026-04-25 14:45 50.46322 -4.17776 10361 ft 285 kts 256°
2026-04-25 14:46 50.45847 -4.20765 9989 ft 280 kts 256°
2026-04-25 14:46 50.45376 -4.23722 9608 ft 279 kts 257°
2026-04-25 14:46 50.44908 -4.26647 9244 ft 278 kts 257°
2026-04-25 14:46 50.44437 -4.29593 8878 ft 279 kts 257°
2026-04-25 14:47 50.43966 -4.32536 8504 ft 278 kts 257°
2026-04-25 14:47 50.43654 -4.34479 8272 ft 277 kts 256°
2026-04-25 14:47 50.43023 -4.38406 7781 ft 277 kts 257°
2026-04-25 14:47 50.42551 -4.41335 7419 ft 277 kts 256°
2026-04-25 14:48 50.42080 -4.44261 7056 ft 276 kts 257°
2026-04-25 14:48 50.41614 -4.47144 6589 ft 274 kts 257°
2026-04-25 14:48 50.41151 -4.49987 6309 ft 269 kts 257°
2026-04-25 14:48 50.40729 -4.52591 5898 ft 276 kts 257°
2026-04-25 14:49 50.40274 -4.55390 5362 ft 267 kts 257°
2026-04-25 14:49 50.39816 -4.58202 4745 ft 265 kts 256°
2026-04-25 14:49 50.39362 -4.60998 4116 ft 265 kts 256°
2026-04-25 14:49 50.38908 -4.63786 3518 ft 262 kts 254°
2026-04-25 14:50 50.38503 -4.66257 3162 ft 265 kts 254°
2026-04-25 14:50 50.38047 -4.69040 2839 ft 261 kts 254°
2026-04-25 14:50 50.37606 -4.71725 2549 ft 249 kts 254°
2026-04-25 14:50 50.37189 -4.74233 2473 ft 223 kts 255°
2026-04-25 14:51 50.36831 -4.76454 2472 ft 203 kts 254°
2026-04-25 14:51 50.36559 -4.78533 2448 ft 187 kts 265°
2026-04-25 14:51 50.36860 -4.80406 2411 ft 170 kts 297°
2026-04-25 14:51 50.37486 -4.81885 2467 ft 160 kts 298°
2026-04-25 14:52 50.37988 -4.83355 2476 ft 147 kts 299°
2026-04-25 14:52 50.38483 -4.84688 2415 ft 143 kts 299°
2026-04-25 14:52 50.38986 -4.86025 2201 ft 140 kts 299°
2026-04-25 14:52 50.39314 -4.86893 2094 ft 141 kts 300°
2026-04-25 14:53 50.40013 -4.88656 1817 ft 142 kts 300°
2026-04-25 14:53 50.40524 -4.89959 1588 ft 139 kts 298°
2026-04-25 14:53 50.40987 -4.91279 1401 ft 137 kts 297°
2026-04-25 14:53 50.41447 -4.92546 1260 ft 131 kts 300°
2026-04-25 14:54 50.41896 -4.93685 1093 ft 126 kts 302°
2026-04-25 14:54 50.42329 -4.94850 941 ft 122 kts 300°
2026-04-25 14:54 50.42758 -4.96006 731 ft 123 kts 300°
2026-04-25 14:54 50.43189 -4.97154 599 ft 123 kts 300°
2026-04-25 14:55 50.43619 -4.98311 413 ft 121 kts 300°
2026-04-25 14:55 50.44012 -4.99354 348 ft 101 kts 300°
2026-04-25 14:55 50.44251 -4.99998 336 ft 32 kts 300°
2026-04-25 14:55 50.44339 -5.00051 338 ft 11 kts 59°
2026-04-25 14:56 50.44363 -4.99963 339 ft 7 kts 60°
2026-04-25 14:56 50.44363 -4.99948 340 ft 0 kts 129°
2026-04-25 14:56 50.44345 -5.00000 339 ft 13 kts 253°
2026-04-25 14:56 50.44321 -5.00144 338 ft 14 kts 276°
2026-04-25 14:57 50.44377 -5.00262 335 ft 14 kts 347°
2026-04-25 14:57 50.44436 -5.00175 336 ft 12 kts 70°
2026-04-25 14:57 50.44467 -5.00094 338 ft 5 kts 17°
2026-04-25 14:57 50.44504 -5.00131 338 ft 12 kts 304°
2026-04-25 14:58 50.44552 -5.00255 334 ft 17 kts 300°
2026-04-25 14:58 50.44602 -5.00385 331 ft 3 kts 312°
2026-04-25 14:58 50.44614 -5.00396 331 ft 3 kts 316°
2026-04-25 14:58 50.44644 -5.00421 331 ft 5 kts 355°
2026-04-25 14:59 50.44649 -5.00406 332 ft 2 kts 71°
2026-04-25 14:59 50.44654 -5.00377 332 ft 0 kts 77°